Location: Manchester NH
(43.0000°N, 71.5000°W)
Time: 01:20:48

N. Korean satellite - Visible Passes

Search period start: 21 March 2018 00:00
Search period end: 31 March 2018 00:00
Orbit: 460 x 512 km, 97.2° (Epoch: 20 March)

Date Brightness Start Highest point End Pass type
(mag) Time Alt. Az. Time Alt. Az. Time Alt. Az.
21 Mar 10.0 19:37:39 10° SW 19:39:57 16° W 19:42:17 10° NW visible
25 Mar 9.9 19:35:40 10° SW 19:38:06 17° W 19:40:33 10° NW visible
29 Mar 9.9 19:33:38 10° SW 19:36:11 17° W 19:38:45 10° NW visible
